Terminal Aerodrome Forecast
Issued by NWS Charleston, WV

Current Version | Previous Version | Graphics & Text | Print | Product List | Glossary On
Versions: 1 2 3 4 5 6 7 8 9 10 11 12 13 14 15 16 17 18 19 20 21 22 23 24
000
FTUS41 KRLX 220544
TAFHTS
TAF
KHTS 220544Z 2206/2306 26006KT P6SM SCT100
     FM220800 31006KT P6SM BKN080
     FM220900 32006KT P6SM BKN025
     FM221200 34006KT P6SM SCT025
     FM221500 36006KT P6SM FEW140
     FM222100 36004KT P6SM SKC
     FM230000 00000KT P6SM SKC=

USA.gov is the U.S. government's official web portal to all federal, state and local government web resources and services.